����,�O�C���x,�����t���O,�O�C���x,�����t���O,�󒲎����x,�����t���O,�󒲎����x,�����t���O,��󒲎����x,�����t���O,����,�����t���O
2003/4/1 0:00,18.8,0,77,0,20.9,0,49.6,0,21.1,0,15.2,0
2003/4/1 0:15,19,0,77,0,21,0,50.3,0,21,0,15.2,0
2003/4/1 0:30,19.2,0,75,0,21,0,50.1,0,21,0,14.7,0
2003/4/1 0:45,18.9,0,75,0,21,0,50.1,0,21,0,14.7,0
2003/4/1 1:00,18.6,0,78,0,21,0,50,0,21,0,14.3,0
2003/4/1 1:15,18.6,0,78,0,21,0,50.2,0,21,0,14.2,0
2003/4/1 1:30,18.5,0,78,0,21.1,0,50.3,0,21,0,14.2,0
2003/4/1 1:45,18.5,0,78,0,21.1,0,50.3,0,20.9,0,14.2,0
2003/4/1 2:00,18.2,0,80,0,21.2,0,50.5,0,20.9,0,14.3,0
2003/4/1 2:15,18.2,0,81,0,21.3,0,50.9,0,20.9,0,14.3,0
2003/4/1 2:30,18,0,87,0,21.3,0,50.5,0,20.8,0,14.4,0
2003/4/1 2:45,17,0,94,0,21.3,0,50.6,0,20.8,0,14.4,0
2003/4/1 3:00,16.3,0,99,0,21.2,0,50.8,0,20.8,0,14.4,0
2003/4/1 3:15,16,0,99,0,21.2,0,50.9,0,20.8,0,14.5,0
2003/4/1 3:30,15.9,0,99,0,21.2,0,51.3,0,20.8,0,14.5,0
2003/4/1 3:45,15.9,0,99,0,21.1,0,51.6,0,20.8,0,14.7,0
2003/4/1 4:00,15.8,0,99,0,21.1,0,51.8,0,20.8,0,14.8,0
2003/4/1 4:15,16,0,99,0,21.1,0,51.9,0,20.7,0,14.7,0
2003/4/1 4:30,15.7,0,99,0,21,0,52.2,0,20.7,0,14.7,0
2003/4/1 4:45,15.4,0,99,0,21,0,52.5,0,20.7,0,14.8,0
2003/4/1 5:00,15.3,0,99,0,20.9,0,52.5,0,20.7,0,14.8,0
2003/4/1 5:15,15.3,0,99,0,20.9,0,52.5,0,20.6,0,14.8,0
2003/4/1 5:30,15.3,0,99,0,20.9,0,52.7,0,20.6,0,14.9,0
2003/4/1 5:45,15.3,0,99,0,20.8,0,52.8,0,20.6,0,14.9,0
2003/4/1 6:00,15.4,0,99,0,20.8,0,52.7,0,20.5,0,14.9,0
2003/4/1 6:15,15.5,0,99,0,20.8,0,52.9,0,20.5,0,15,0
2003/4/1 6:30,15.4,0,99,0,20.7,0,52.9,0,20.5,0,15,0
2003/4/1 6:45,15.1,0,99,0,20.7,0,53.1,0,20.4,0,15.1,0
2003/4/1 7:00,15.1,0,99,0,20.7,0,53.1,0,20.4,0,15.1,0
2003/4/1 7:15,15.1,0,99,0,20.6,0,53.3,0,20.4,0,15.2,0
2003/4/1 7:30,15.1,0,99,0,20.6,0,53.2,0,20.3,0,15.2,0
2003/4/1 7:45,15.1,0,99,0,20.6,0,53.3,0,20.3,0,15.3,0
2003/4/1 8:00,15.1,0,99,0,20.5,0,53.5,0,20.3,0,15,0
2003/4/1 8:15,15.1,0,99,0,20.5,0,53.6,0,20.3,0,15,0
2003/4/1 8:30,15.1,0,99,0,20.6,0,54,0,20.2,0,14.7,0
2003/4/1 8:45,15.1,0,99,0,20.5,0,54.5,0,20.2,0,14.5,0
2003/4/1 9:00,15.3,0,99,0,20.5,0,54.3,0,20.2,0,14.6,0
2003/4/1 9:15,15.6,0,99,0,20.4,0,54.2,0,20.2,0,14.6,0
2003/4/1 9:30,15.9,0,99,0,20.4,0,54.3,0,20.1,0,14.6,0
2003/4/1 9:45,16,0,99,0,20.4,0,54.6,0,20.1,0,14.7,0
2003/4/1 10:00,16,0,98,0,20.4,0,54.5,0,20.1,0,14.7,0
2003/4/1 10:15,16,0,97,0,20.4,0,54.5,0,20.1,0,14.7,0
2003/4/1 10:30,16.1,0,96,0,20.4,0,54.8,0,20.1,0,14.8,0
2003/4/1 10:45,16.1,0,95,0,20.3,0,54.8,0,20.1,0,14.8,0
2003/4/1 11:00,16.2,0,93,0,20.3,0,54.7,0,20,0,14.8,0
2003/4/1 11:15,16,0,94,0,20.3,0,54.9,0,20,0,14.9,0
2003/4/1 11:30,16,0,93,0,20.3,0,55,0,20,0,14.9,0
2003/4/1 11:45,16.1,0,93,0,20.3,0,54.8,0,20,0,14.9,0
2003/4/1 12:00,16,0,93,0,20.3,0,54.7,0,20,0,15,0
2003/4/1 12:15,16.2,0,91,0,20.2,0,55,0,20,0,15,0
2003/4/1 12:30,16.9,0,88,0,20.2,0,54.9,0,20,0,15,0
2003/4/1 12:45,17.3,0,82,0,20.2,0,54.8,0,20,0,15.1,0
2003/4/1 13:00,17.1,0,84,0,20.2,0,54.7,0,20,0,15.1,0
2003/4/1 13:15,17.3,0,83,0,20.2,0,54.7,0,20.1,0,15.2,0
2003/4/1 13:30,17.6,0,80,0,20.2,0,54.4,0,20.1,0,15.2,0
2003/4/1 13:45,17.8,0,79,0,20.2,0,54.3,0,20.1,0,15.3,0
2003/4/1 14:00,18.1,0,78,0,20.3,0,54.5,0,20.1,0,15.3,0
2003/4/1 14:15,18.2,0,76,0,20.3,0,54.2,0,20.1,0,15.3,0
2003/4/1 14:30,18.3,0,74,0,20.3,0,53.9,0,20.2,0,15.3,0
2003/4/1 14:45,18.1,0,76,0,20.3,0,54.2,0,20.2,0,15.4,0
2003/4/1 15:00,18.8,0,76,0,20.3,0,53.9,0,20.2,0,15.4,0
2003/4/1 15:15,19.2,0,69,0,20.3,0,53.4,0,20.3,0,15.4,0
2003/4/1 15:30,18.9,0,72,0,20.3,0,53.9,0,20.3,0,15.5,0
2003/4/1 15:45,21.5,0,64,0,20.4,0,53.7,0,20.4,0,15.5,0
2003/4/1 16:00,20.9,0,61,0,20.5,0,53.6,0,20.5,0,15.6,0
2003/4/1 16:15,21.3,0,61,0,20.5,0,53.7,0,20.7,0,15.1,0
2003/4/1 16:30,19.6,0,67,0,20.6,0,53.4,0,20.8,0,15.1,0
2003/4/1 16:45,19.2,0,69,0,20.7,0,53.6,0,21,0,15.2,0
2003/4/1 17:00,18.5,0,71,0,20.8,0,53.6,0,21.1,0,15.2,0
2003/4/1 17:15,18.2,0,71,0,20.8,0,53.7,0,21.2,0,15.2,0
2003/4/1 17:30,18.1,0,72,0,20.8,0,53.6,0,21.2,0,15.3,0
2003/4/1 17:45,17.8,0,75,0,20.8,0,53.8,0,21.2,0,15.3,0
2003/4/1 18:00,17.6,0,76,0,20.8,0,54,0,21.3,0,15.3,0
2003/4/1 18:15,17.5,0,76,0,20.8,0,54.1,0,21.2,0,15.4,0
2003/4/1 18:30,17.1,0,77,0,20.8,0,54.1,0,21.2,0,15.4,0
2003/4/1 18:45,17,0,79,0,20.8,0,54.3,0,21.2,0,15.5,0
2003/4/1 19:00,16.7,0,81,0,20.8,0,54.4,0,21.2,0,15.5,0
2003/4/1 19:15,16.5,0,81,0,20.8,0,54.7,0,21.1,0,15.5,0
2003/4/1 19:30,16.3,0,83,0,20.7,0,54.8,0,21.1,0,15.6,0
2003/4/1 19:45,16.3,0,83,0,20.7,0,54.8,0,21.1,0,15.6,0
2003/4/1 20:00,16.2,0,84,0,21.1,0,54.8,0,21,0,15.6,0
2003/4/1 20:15,16,0,85,0,21.2,0,54.6,0,20.9,0,15.7,0
2003/4/1 20:30,15.9,0,87,0,21.3,0,54.1,0,20.9,0,15.7,0
2003/4/1 20:45,16.1,0,85,0,21.3,0,54.4,0,20.8,0,15.8,0
2003/4/1 21:00,16.2,0,84,0,21.3,0,54.1,0,20.8,0,15.8,0
2003/4/1 21:15,16.1,0,84,0,21.4,0,53.8,0,20.8,0,15.9,0
2003/4/1 21:30,16,0,84,0,21.5,0,54.3,0,20.8,0,15.1,0
2003/4/1 21:45,16,0,82,0,21.7,0,53.3,0,20.8,0,14.8,0
2003/4/1 22:00,16,0,83,0,21.8,0,53.1,0,20.7,0,14.8,0
2003/4/1 22:15,16,0,84,0,22.1,0,53,0,20.7,0,14.8,0
2003/4/1 22:30,15.9,0,85,0,22.3,0,52.9,0,20.7,0,14.8,0
2003/4/1 22:45,15.6,0,87,0,22.5,0,53.2,0,20.7,0,14.9,0
2003/4/1 23:00,15.6,0,86,0,22.5,0,53.3,0,20.6,0,14.9,0
2003/4/1 23:15,15.5,0,86,0,22.5,0,53.5,0,20.6,0,14.9,0
2003/4/1 23:30,15.4,0,86,0,22.6,0,53.5,0,20.6,0,15,0
2003/4/1 23:45,15.3,0,87,0,22.6,0,53.5,0,20.5,0,15,0
2003/4/2 0:00,15.1,0,88,0,22.6,0,53.7,0,20.5,0,14.9,0
2003/4/2 0:15,15,0,88,0,22.5,0,53.8,0,20.4,0,14.9,0
2003/4/2 0:30,15,0,88,0,22.5,0,53.9,0,20.4,0,14.9,0
2003/4/2 0:45,15,0,88,0,22.4,0,53.4,0,20.4,0,14.9,0
2003/4/2 1:00,14.7,0,90,0,22.4,0,54.1,0,20.3,0,14.9,0
2003/4/2 1:15,14.5,0,91,0,22.4,0,54.3,0,20.3,0,14.7,0
2003/4/2 1:30,14.4,0,91,0,22.3,0,54,0,20.3,0,14.7,0
2003/4/2 1:45,14.2,0,93,0,22.3,0,53.9,0,20.2,0,14.8,0
2003/4/2 2:00,14.2,0,94,0,22.3,0,53.8,0,20.2,0,14.8,0
2003/4/2 2:15,14,0,94,0,22.3,0,53.7,0,20.2,0,14.8,0
2003/4/2 2:30,13.8,0,94,0,22.2,0,53.5,0,20.1,0,14.8,0
2003/4/2 2:45,13.8,0,95,0,22.1,0,53.3,0,20.1,0,14.8,0
2003/4/2 3:00,13.5,0,97,0,22,0,53.2,0,20,0,14.8,0
2003/4/2 3:15,13.7,0,97,0,21.8,0,52,0,20,0,14.9,0
2003/4/2 3:30,13.8,0,97,0,21.7,0,51.9,0,20,0,14.9,0
2003/4/2 3:45,13.8,0,97,0,21.5,0,52,0,20,0,14.9,0
2003/4/2 4:00,14,0,95,0,21.4,0,52,0,19.9,0,15,0
2003/4/2 4:15,14.1,0,93,0,21.2,0,52,0,19.9,0,15,0
2003/4/2 4:30,14.1,0,92,0,21.1,0,52.1,0,19.9,0,15,0
2003/4/2 4:45,14.2,0,91,0,21,0,52.3,0,19.9,0,15.1,0
2003/4/2 5:00,14.3,0,91,0,21,0,52.4,0,19.8,0,15.1,0
2003/4/2 5:15,14.2,0,90,0,20.9,0,52.5,0,19.8,0,15.2,0
2003/4/2 5:30,14.2,0,89,0,20.8,0,52.6,0,19.8,0,15.2,0
2003/4/2 5:45,14.2,0,88,0,20.7,0,52.7,0,19.7,0,15.2,0
2003/4/2 6:00,14.2,0,86,0,20.6,0,52.8,0,19.7,0,15.3,0
2003/4/2 6:15,14.2,0,86,0,20.6,0,52.9,0,19.7,0,15.3,0
2003/4/2 6:30,14.2,0,85,0,20.5,0,52.9,0,19.6,0,15.3,0
2003/4/2 6:45,14.2,0,85,0,20.4,0,53,0,19.6,0,15.4,0
2003/4/2 7:00,14.4,0,84,0,20.4,0,53,0,19.6,0,15.4,0
2003/4/2 7:15,14.5,0,83,0,20.3,0,53,0,19.5,0,15.4,0
2003/4/2 7:30,14.7,0,82,0,20.3,0,53,0,19.5,0,15.5,0
2003/4/2 7:45,14.8,0,79,0,20.2,0,53.1,0,19.5,0,15.5,0
2003/4/2 8:00,15.1,0,78,0,20.2,0,53.1,0,19.5,0,15.1,0
2003/4/2 8:15,15.5,0,76,0,20.1,0,53,0,19.5,0,15.1,0
2003/4/2 8:30,15.9,0,73,0,20.1,0,53.2,0,19.4,0,15.1,0
2003/4/2 8:45,16.2,0,72,0,20.1,0,53.1,0,19.4,0,15.2,0
2003/4/2 9:00,16.4,0,70,0,20.1,0,53.1,0,19.4,0,15.2,0
2003/4/2 9:15,16.8,0,69,0,20,0,53,0,19.4,0,15.2,0
2003/4/2 9:30,17.1,0,66,0,20,0,53,0,19.4,0,15.3,0
2003/4/2 9:45,17,0,66,0,20,0,52.9,0,19.4,0,15.3,0
2003/4/2 10:00,17.1,0,66,0,20,0,52.8,0,19.4,0,15.3,0
2003/4/2 10:15,17,0,67,0,20,0,52.7,0,19.4,0,15.3,0
2003/4/2 10:30,17.1,0,68,0,20,0,52.7,0,19.4,0,15.4,0
2003/4/2 10:45,17.3,0,71,0,20,0,52.8,0,19.4,0,15.4,0
2003/4/2 11:00,17.3,0,71,0,20,0,52.7,0,19.4,0,15.4,0
2003/4/2 11:15,17.2,0,72,0,20,0,52.8,0,19.5,0,15.4,0
2003/4/2 11:30,17.7,0,71,0,20,0,53,0,19.5,0,15.5,0
2003/4/2 11:45,18,0,70,0,20,0,53.2,0,19.5,0,15.5,0
2003/4/2 12:00,18.1,0,70,0,20,0,53,0,19.5,0,15.5,0
2003/4/2 12:15,18.4,0,70,0,20,0,53.2,0,19.6,0,15.5,0
2003/4/2 12:30,18.1,0,71,0,20.1,0,53.3,0,19.6,0,15.5,0
2003/4/2 12:45,17.3,0,73,0,20.1,0,52.8,0,19.7,0,15.6,0
2003/4/2 13:00,16.9,0,76,0,20.1,0,52.8,0,19.7,0,15.6,0
2003/4/2 13:15,16.8,0,78,0,20.2,0,53,0,19.7,0,15.6,0
2003/4/2 13:30,16.5,0,78,0,20.2,0,53,0,19.8,0,15.7,0
2003/4/2 13:45,16.1,0,79,0,20.2,0,53.3,0,19.8,0,15.7,0
2003/4/2 14:00,15.9,0,80,0,20.1,0,53.9,0,19.8,0,15.7,0
2003/4/2 14:15,15.6,0,81,0,20.1,0,54.1,0,19.8,0,15.7,0
2003/4/2 14:30,15.3,0,82,0,20.1,0,54.1,0,19.8,0,15.8,0
2003/4/2 14:45,15,0,84,0,20.1,0,54.3,0,19.8,0,15.8,0
2003/4/2 15:00,14.7,0,85,0,20.1,0,54.5,0,19.8,0,15.8,0
2003/4/2 15:15,14.4,0,86,0,20,0,54.6,0,19.8,0,15.8,0
2003/4/2 15:30,14.2,0,87,0,20,0,54.6,0,19.8,0,15.9,0
2003/4/2 15:45,14.1,0,88,0,20,0,54.7,0,19.7,0,15.9,0
2003/4/2 16:00,14.1,0,87,0,20,0,54.7,0,19.7,0,15.9,0
2003/4/2 16:15,13.8,0,88,0,19.9,0,54.6,0,19.7,0,15.9,0
2003/4/2 16:30,13.8,0,88,0,19.9,0,54.7,0,19.7,0,16,0
2003/4/2 16:45,13.7,0,89,0,19.8,0,54.7,0,19.7,0,16,0
2003/4/2 17:00,13.5,0,88,0,19.8,0,54.6,0,19.6,0,16,0
2003/4/2 17:15,13.5,0,88,0,19.8,0,54.5,0,19.6,0,16,0
2003/4/2 17:30,13.4,0,89,0,19.7,0,54.6,0,19.6,0,16,0
2003/4/2 17:45,13.4,0,88,0,19.7,0,54.4,0,19.5,0,16.1,0
2003/4/2 18:00,13.5,0,88,0,19.7,0,54.4,0,19.5,0,16.1,0
2003/4/2 18:15,13.5,0,88,0,19.6,0,54.4,0,19.5,0,16.1,0
2003/4/2 18:30,13.3,0,88,0,19.6,0,54.3,0,19.4,0,16.1,0
2003/4/2 18:45,13.1,0,89,0,19.6,0,54.3,0,19.4,0,16.1,0
2003/4/2 19:00,13.1,0,89,0,19.5,0,54.2,0,19.4,0,16.2,0
2003/4/2 19:15,13.1,0,89,0,19.5,0,54.3,0,19.3,0,16.1,0
2003/4/2 19:30,13.2,0,89,0,19.5,0,54.2,0,19.3,0,16.2,0
2003/4/2 19:45,13.3,0,89,0,19.4,0,54.2,0,19.3,0,16.2,0
2003/4/2 20:00,13.2,0,87,0,19.4,0,54.1,0,19.2,0,16.2,0
2003/4/2 20:15,13.1,0,88,0,19.3,0,54.2,0,19.2,0,16.2,0
2003/4/2 20:30,13.1,0,89,0,19.3,0,54.2,0,19.2,0,16.2,0
2003/4/2 20:45,13.2,0,89,0,19.3,0,54.2,0,19.1,0,16.2,0
2003/4/2 21:00,13.2,0,88,0,19.2,0,54.2,0,19.1,0,16.3,0
2003/4/2 21:15,13.1,0,89,0,19.2,0,54.2,0,19,0,16.3,0
2003/4/2 21:30,13.1,0,90,0,19.2,0,54.2,0,19,0,16.3,0
2003/4/2 21:45,13.2,0,89,0,19.1,0,54.2,0,19,0,16.3,0
2003/4/2 22:00,13.3,0,89,0,19.2,0,54.3,0,18.9,0,16.3,0
2003/4/2 22:15,13.3,0,88,0,19.2,0,54,0,18.9,0,16.3,0
2003/4/2 22:30,13.2,0,89,0,19.3,0,54.2,0,18.9,0,16.3,0
2003/4/2 22:45,13.2,0,88,0,19.4,0,54.2,0,18.8,0,16.3,0
2003/4/2 23:00,13.3,0,89,0,19.5,0,54.6,0,18.8,0,15.3,0
2003/4/2 23:15,13.1,0,90,0,19.9,0,55.1,0,18.7,0,15.3,0
2003/4/2 23:30,13.1,0,89,0,20.4,0,55.4,0,18.7,0,15.3,0
2003/4/2 23:45,13.2,0,88,0,20.7,0,55.3,0,18.7,0,15.3,0
2003/4/3 0:00,13.2,0,88,0,21.1,0,55,0,18.7,0,15.3,0
2003/4/3 0:15,13.2,0,87,0,21.4,0,54.6,0,18.6,0,15.4,0
2003/4/3 0:30,13.2,0,85,0,21.6,0,53.6,0,18.6,0,15.4,0
2003/4/3 0:45,13.4,0,84,0,21.9,0,53.4,0,18.6,0,15.4,0
2003/4/3 1:00,13.3,0,84,0,22.1,0,53.2,0,18.6,0,15.4,0
2003/4/3 1:15,13.3,0,85,0,22.3,0,52.8,0,18.5,0,15.4,0
2003/4/3 1:30,13.1,0,86,0,22.4,0,51.8,0,18.5,0,14.8,0
2003/4/3 1:45,13,0,87,0,22.4,0,51.2,0,18.5,0,14.5,0
2003/4/3 2:00,13,0,88,0,21.8,0,48.3,0,18.6,0,14.6,0
2003/4/3 2:15,13,0,88,0,21.4,0,48.9,0,18.6,0,14.6,0
2003/4/3 2:30,12.8,0,89,0,21.2,0,49.1,0,18.6,0,14.6,0
2003/4/3 2:45,12.9,0,89,0,20.9,0,49.5,0,18.6,0,14.6,0
2003/4/3 3:00,12.7,0,91,0,20.7,0,49.8,0,18.6,0,14.6,0
2003/4/3 3:15,12.6,0,91,0,20.5,0,50,0,18.6,0,14.7,0
2003/4/3 3:30,12.5,0,91,0,20.4,0,50.3,0,18.5,0,14.7,0
2003/4/3 3:45,12.5,0,90,0,20.2,0,50.7,0,18.5,0,14.7,0
2003/4/3 4:00,12.5,0,88,0,20,0,50.9,0,18.5,0,14.7,0
2003/4/3 4:15,12.5,0,87,0,19.9,0,51,0,18.5,0,14.7,0
2003/4/3 4:30,12.5,0,84,0,19.8,0,51.2,0,18.4,0,14.7,0
2003/4/3 4:45,12.5,0,83,0,19.7,0,51.4,0,18.4,0,14.8,0
2003/4/3 5:00,12.6,0,82,0,19.6,0,51.5,0,18.4,0,14.8,0
2003/4/3 5:15,12.6,0,81,0,19.6,0,51.6,0,18.4,0,14.8,0
2003/4/3 5:30,12.6,0,80,0,19.5,0,51.7,0,18.3,0,14.8,0
2003/4/3 5:45,12.6,0,78,0,19.4,0,51.8,0,18.3,0,14.8,0
2003/4/3 6:00,12.6,0,78,0,19.3,0,51.8,0,18.3,0,14.8,0
2003/4/3 6:15,12.5,0,77,0,19.3,0,51.9,0,18.2,0,14.8,0
2003/4/3 6:30,12.5,0,78,0,19.2,0,51.9,0,18.2,0,14.8,0
2003/4/3 6:45,12.5,0,77,0,19.2,0,51.9,0,18.2,0,14.9,0
2003/4/3 7:00,12.6,0,77,0,19.1,0,52,0,18.1,0,14.9,0
2003/4/3 7:15,12.6,0,76,0,19,0,52.1,0,18.1,0,14.9,0
2003/4/3 7:30,12.8,0,75,0,19,0,52,0,18.1,0,14.9,0
2003/4/3 7:45,13,0,74,0,18.9,0,52,0,18.1,0,14.9,0
2003/4/3 8:00,13.3,0,72,0,18.9,0,52.1,0,18,0,14.9,0
2003/4/3 8:15,13.6,0,71,0,18.9,0,52,0,18,0,14.9,0
2003/4/3 8:30,14.3,0,68,0,18.9,0,52,0,18,0,14.9,0
2003/4/3 8:45,14.3,0,67,0,18.9,0,52,0,18,0,14.9,0
2003/4/3 9:00,14.2,0,66,0,19,0,51.7,0,18.1,0,14.6,0
2003/4/3 9:15,14.8,0,65,0,19,0,51.3,0,18.1,0,14.6,0
2003/4/3 9:30,14.8,0,62,0,19,0,51.5,0,18.1,0,14.6,0
2003/4/3 9:45,15.3,0,61,0,19,0,51.4,0,18.1,0,14.6,0
2003/4/3 10:00,15.4,0,59,0,19.1,0,51,0,18.1,0,14.7,0
2003/4/3 10:15,15.6,0,57,0,19.2,0,50.9,0,18.2,0,14.7,0
2003/4/3 10:30,15.9,0,54,0,19.2,0,50.9,0,18.2,0,14.7,0
2003/4/3 10:45,16,0,51,0,19.2,0,50.7,0,18.3,0,14.7,0
2003/4/3 11:00,16.8,0,46,0,19.2,0,50.7,0,18.3,0,14.7,0
2003/4/3 11:15,17.3,0,44,0,19.2,0,50.7,0,18.3,0,14.7,0
2003/4/3 11:30,17.7,0,39,0,19.3,0,50.5,0,18.4,0,14.7,0
2003/4/3 11:45,18.1,0,40,0,19.3,0,50.3,0,18.4,0,14.7,0
2003/4/3 12:00,18.3,0,40,0,19.3,0,50.2,0,18.5,0,14.8,0
2003/4/3 12:15,18.6,0,39,0,19.4,0,50,0,18.6,0,14.8,0
2003/4/3 12:30,19.2,0,41,0,19.4,0,49.8,0,18.6,0,14.8,0
2003/4/3 12:45,19.3,0,47,0,19.5,0,49.8,0,18.7,0,14.8,0
2003/4/3 13:00,18.9,0,48,0,19.5,0,49.8,0,18.8,0,14.8,0
2003/4/3 13:15,18.8,0,48,0,19.6,0,49.6,0,18.9,0,14.8,0
2003/4/3 13:30,19.1,0,48,0,19.6,0,49.7,0,19,0,14.8,0
2003/4/3 13:45,19.2,0,48,0,19.6,0,49.9,0,19.2,0,14.8,0
2003/4/3 14:00,19.1,0,48,0,19.7,0,49.9,0,19.3,0,14.9,0
2003/4/3 14:15,18.4,0,49,0,19.7,0,49.9,0,19.3,0,14.9,0
2003/4/3 14:30,18.2,0,50,0,19.8,0,50,0,19.4,0,14.9,0
2003/4/3 14:45,17.6,0,53,0,19.8,0,50.1,0,19.5,0,14.9,0
2003/4/3 15:00,17.2,0,55,0,19.8,0,50.2,0,19.6,0,14.9,0
2003/4/3 15:15,17,0,55,0,19.8,0,50.4,0,19.6,0,14.9,0
2003/4/3 15:30,17.1,0,55,0,19.8,0,50.6,0,19.6,0,14.9,0
2003/4/3 15:45,16.5,0,56,0,19.8,0,50.5,0,19.6,0,15,0
2003/4/3 16:00,16.1,0,59,0,19.8,0,50.5,0,19.6,0,15,0
2003/4/3 16:15,16.1,0,59,0,19.8,0,50.6,0,19.7,0,15,0
2003/4/3 16:30,15.7,0,61,0,19.8,0,50.5,0,19.7,0,15,0
2003/4/3 16:45,15.4,0,64,0,19.8,0,50.6,0,19.6,0,15,0
2003/4/3 17:00,15.5,0,65,0,19.7,0,50.5,0,19.6,0,15,0
2003/4/3 17:15,15.9,0,64,0,19.7,0,50.5,0,19.6,0,15.1,0
2003/4/3 17:30,15.9,0,63,0,19.7,0,50.5,0,19.6,0,15.1,0
2003/4/3 17:45,15.9,0,62,0,19.7,0,50.5,0,19.6,0,15.1,0
2003/4/3 18:00,15.7,0,63,0,19.7,0,50.5,0,19.6,0,15.1,0
2003/4/3 18:15,15.6,0,64,0,19.6,0,50.5,0,19.6,0,14.8,0
2003/4/3 18:30,15,0,67,0,19.9,0,50.1,0,19.7,0,14.8,0
2003/4/3 18:45,14.8,0,70,0,19.7,0,50.4,0,19.7,0,14.8,0
2003/4/3 19:00,14.8,0,71,0,19.7,0,50.5,0,19.7,0,14.8,0
2003/4/3 19:15,14.8,0,72,0,19.6,0,50.6,0,19.6,0,14.9,0
2003/4/3 19:30,14.5,0,73,0,19.6,0,50.7,0,19.6,0,14.9,0
2003/4/3 19:45,14.5,0,74,0,19.6,0,50.9,0,19.6,0,14.9,0
2003/4/3 20:00,14.5,0,74,0,19.5,0,51,0,19.6,0,14.9,0
2003/4/3 20:15,14.4,0,74,0,19.5,0,51.1,0,19.5,0,14.9,0
2003/4/3 20:30,14.2,0,76,0,19.5,0,51,0,19.5,0,15,0
2003/4/3 20:45,14.2,0,79,0,19.4,0,51.1,0,19.4,0,15,0
2003/4/3 21:00,14.1,0,80,0,19.4,0,51,0,19.4,0,15,0
2003/4/3 21:15,13.9,0,81,0,19.8,0,51,0,19.3,0,14.8,0
2003/4/3 21:30,13.9,0,82,0,20.1,0,50.9,0,19.3,0,14.9,0
2003/4/3 21:45,14,0,80,0,20.5,0,50.5,0,19.2,0,14.9,0
2003/4/3 22:00,14.2,0,79,0,20.8,0,50,0,19.2,0,14.9,0
2003/4/3 22:15,14.2,0,80,0,21.1,0,50.3,0,19.2,0,14.9,0
2003/4/3 22:30,14.1,0,80,0,21.2,0,49.1,0,19.1,0,14.9,0
2003/4/3 22:45,14.1,0,80,0,21.4,0,48.2,0,19.1,0,14.9,0
2003/4/3 23:00,14.1,0,80,0,21.5,0,48.2,0,19.1,0,15,0
2003/4/3 23:15,14,0,81,0,21.7,0,48.6,0,19.1,0,15,0
2003/4/3 23:30,13.9,0,82,0,21.9,0,48.6,0,19,0,15,0
2003/4/3 23:45,13.7,0,84,0,22.2,0,49.3,0,19,0,15,0
2003/4/4 0:00,13.5,0,86,0,22.4,0,49.4,0,19,0,15,0
2003/4/4 0:15,13.5,0,85,0,22.6,0,49.1,0,19,0,15.1,0
2003/4/4 0:30,13.5,0,87,0,22.8,0,48.8,0,19,0,15.1,0
2003/4/4 0:45,13.5,0,87,0,22.6,0,46.3,0,19,0,15.1,0
2003/4/4 1:00,13.4,0,88,0,22.7,0,47.5,0,19,0,14.8,0
2003/4/4 1:15,13.3,0,89,0,22.6,0,47.6,0,19,0,14.4,0
2003/4/4 1:30,13.1,0,91,0,22.5,0,47.6,0,18.9,0,14.4,0
2003/4/4 1:45,13,0,92,0,22.4,0,48.1,0,18.9,0,14.4,0
2003/4/4 2:00,13,0,93,0,22.3,0,48.4,0,18.8,0,14.5,0
2003/4/4 2:15,12.8,0,94,0,22.2,0,48.6,0,18.8,0,14.5,0
2003/4/4 2:30,12.8,0,95,0,22,0,47.9,0,18.9,0,14.5,0
2003/4/4 2:45,12.7,0,96,0,21.8,0,47.7,0,18.9,0,14.5,0
2003/4/4 3:00,12.6,0,96,0,21.6,0,48,0,18.9,0,14.5,0
2003/4/4 3:15,12.6,0,95,0,21.4,0,48.1,0,18.9,0,14.6,0
2003/4/4 3:30,12.6,0,96,0,21.4,0,48.1,0,18.9,0,14.6,0
2003/4/4 3:45,12.5,0,97,0,21.4,0,47.8,0,18.9,0,14.6,0
2003/4/4 4:00,12.5,0,98,0,21.4,0,47.6,0,18.9,0,14.6,0
2003/4/4 4:15,12.5,0,99,0,21.1,0,48.2,0,18.9,0,14.7,0
2003/4/4 4:30,12.5,0,99,0,20.9,0,48.7,0,18.8,0,14.7,0
2003/4/4 4:45,12.5,0,99,0,20.7,0,49.2,0,18.8,0,14.7,0
2003/4/4 5:00,12.4,0,99,0,20.6,0,49.7,0,18.8,0,14.7,0
2003/4/4 5:15,12.3,0,99,0,20.4,0,49.9,0,18.7,0,14.8,0
2003/4/4 5:30,12.2,0,99,0,20.3,0,50.2,0,18.7,0,14.8,0
2003/4/4 5:45,12.1,0,99,0,20.2,0,50.5,0,18.7,0,14.8,0
2003/4/4 6:00,12,0,99,0,20.1,0,50.7,0,18.6,0,14.8,0
2003/4/4 6:15,12,0,99,0,20,0,50.9,0,18.6,0,14.9,0
2003/4/4 6:30,12,0,99,0,19.9,0,51.1,0,18.6,0,14.9,0
2003/4/4 6:45,12,0,99,0,19.8,0,51.2,0,18.6,0,14.9,0
2003/4/4 7:00,12.1,0,99,0,19.7,0,51.4,0,18.5,0,14.9,0
2003/4/4 7:15,12.2,0,99,0,19.7,0,51.6,0,18.5,0,14.9,0
2003/4/4 7:30,12.2,0,99,0,19.6,0,51.7,0,18.4,0,14.9,0
2003/4/4 7:45,12,0,99,0,19.5,0,51.9,0,18.4,0,14.9,0
2003/4/4 8:00,12,0,99,0,19.5,0,52,0,18.4,0,15,0
2003/4/4 8:15,12,0,99,0,19.4,0,52.1,0,18.4,0,14.8,0
2003/4/4 8:30,12.1,0,99,0,19.4,0,52.3,0,18.4,0,14.8,0
2003/4/4 8:45,12,0,99,0,19.4,0,52.5,0,18.3,0,14.7,0
2003/4/4 9:00,12.1,0,99,0,19.3,0,52.5,0,18.3,0,14.7,0
2003/4/4 9:15,12.2,0,99,0,19.3,0,52.6,0,18.3,0,14.7,0
2003/4/4 9:30,12.2,0,99,0,19.2,0,52.8,0,18.2,0,14.7,0
2003/4/4 9:45,12.1,0,99,0,19.2,0,52.9,0,18.2,0,14.7,0
2003/4/4 10:00,12,0,99,0,19.1,0,53.1,0,18.2,0,14.8,0
2003/4/4 10:15,12.2,0,99,0,19.1,0,53.1,0,18.1,0,14.8,0
2003/4/4 10:30,12.1,0,99,0,19,0,53.2,0,18.1,0,14.8,0
2003/4/4 10:45,12.2,0,99,0,19,0,53.3,0,18.1,0,14.8,0
2003/4/4 11:00,12.3,0,99,0,19,0,53.4,0,18.1,0,14.8,0
2003/4/4 11:15,12.5,0,99,0,19,0,53.5,0,18,0,14.8,0
2003/4/4 11:30,12.5,0,99,0,18.9,0,53.7,0,18,0,14.8,0
2003/4/4 11:45,12.5,0,99,0,18.9,0,53.8,0,18,0,14.8,0
2003/4/4 12:00,12.5,0,99,0,18.9,0,54.1,0,18,0,14.9,0
2003/4/4 12:15,12.7,0,99,0,18.8,0,54.3,0,18,0,14.9,0
2003/4/4 12:30,12.6,0,99,0,18.8,0,54.3,0,18,0,14.9,0
2003/4/4 12:45,13,0,98,0,18.8,0,54.4,0,17.9,0,14.9,0
2003/4/4 13:00,13,0,97,0,18.7,0,54.6,0,17.9,0,14.9,0
2003/4/4 13:15,13,0,93,0,18.7,0,54.6,0,17.9,0,14.9,0
2003/4/4 13:30,13,0,93,0,18.7,0,54.7,0,17.9,0,14.9,0
2003/4/4 13:45,12.9,0,94,0,18.7,0,55,0,17.9,0,14.9,0
2003/4/4 14:00,12.7,0,94,0,18.7,0,55,0,17.9,0,14.9,0
2003/4/4 14:15,12.4,0,95,0,18.6,0,54.8,0,17.8,0,14.9,0
2003/4/4 14:30,12.4,0,93,0,18.6,0,55.1,0,17.8,0,14.9,0
2003/4/4 14:45,12.3,0,91,0,18.6,0,55.1,0,17.8,0,15,0
2003/4/4 15:00,12.4,0,90,0,18.5,0,55.1,0,17.8,0,15,0
2003/4/4 15:15,12.3,0,89,0,18.5,0,55.1,0,17.8,0,15,0
2003/4/4 15:30,12.5,0,88,0,18.4,0,55.3,0,17.7,0,15,0
2003/4/4 15:45,12.5,0,84,0,18.4,0,55.2,0,17.7,0,15,0
2003/4/4 16:00,12.7,0,83,0,18.4,0,55.1,0,17.7,0,15,0
2003/4/4 16:15,12.6,0,84,0,18.4,0,55.2,0,17.7,0,15,0
2003/4/4 16:30,12.5,0,81,0,18.3,0,55.1,0,17.6,0,15,0
2003/4/4 16:45,12.6,0,80,0,18.3,0,55,0,17.6,0,15,0
2003/4/4 17:00,12.7,0,78,0,18.3,0,54.9,0,17.6,0,15,0
2003/4/4 17:15,12.6,0,78,0,18.3,0,54.9,0,17.6,0,15,0
2003/4/4 17:30,12.8,0,77,0,18.2,0,54.8,0,17.6,0,15,0
2003/4/4 17:45,12.9,0,77,0,18.2,0,54.7,0,17.6,0,15,0
2003/4/4 18:00,12.3,0,78,0,18.2,0,54.7,0,17.6,0,15,0
2003/4/4 18:15,11.9,0,80,0,18.2,0,54.6,0,17.6,0,15,0
2003/4/4 18:30,11.9,0,80,0,18.2,0,54.5,0,17.6,0,15,0
2003/4/4 18:45,11.7,0,79,0,18.1,0,54.5,0,17.6,0,15.1,0
2003/4/4 19:00,11.6,0,81,0,18.1,0,54.5,0,17.5,0,15.1,0
2003/4/4 19:15,11.7,0,81,0,18,0,54.3,0,17.5,0,15.1,0
2003/4/4 19:30,11.6,0,82,0,18,0,54.2,0,17.4,0,15.1,0
2003/4/4 19:45,11.5,0,82,0,17.9,0,54.2,0,17.4,0,15.1,0
2003/4/4 20:00,11.7,0,82,0,17.9,0,54.1,0,17.4,0,15.1,0
2003/4/4 20:15,11.4,0,80,0,17.8,0,54,0,17.3,0,15.1,0
2003/4/4 20:30,11.2,0,79,0,17.8,0,54,0,17.3,0,15.1,0
2003/4/4 20:45,11,0,78,0,17.7,0,54,0,17.2,0,15.1,0
2003/4/4 21:00,11.2,0,75,0,17.7,0,53.8,0,17.2,0,15.1,0
2003/4/4 21:15,11.2,0,74,0,17.6,0,53.7,0,17.2,0,15.1,0
2003/4/4 21:30,11.2,0,75,0,17.6,0,53.5,0,17.1,0,15.1,0
2003/4/4 21:45,11.1,0,75,0,17.5,0,53.4,0,17.1,0,15.1,0
2003/4/4 22:00,11.1,0,74,0,17.5,0,53.2,0,17,0,15.1,0
2003/4/4 22:15,11.2,0,71,0,17.6,0,52.9,0,17,0,14.4,0
2003/4/4 22:30,11.1,0,71,0,18.1,0,53.5,0,17,0,14.4,0
2003/4/4 22:45,11.1,0,72,0,18.5,0,53.7,0,16.9,0,14.4,0
2003/4/4 23:00,11,0,72,0,18.9,0,53.5,0,16.9,0,14.2,0
2003/4/4 23:15,11,0,71,0,19.3,0,53.6,0,16.8,0,14.2,0
2003/4/4 23:30,11,0,69,0,19.6,0,53.6,0,16.8,0,14.2,0
2003/4/4 23:45,10.9,0,69,0,19.9,0,53.2,0,16.7,0,14.2,0
2003/4/5 0:00,11,0,69,0,20.2,0,52.9,0,16.7,0,14.2,0
2003/4/5 0:15,11,0,68,0,20.6,0,52.9,0,16.7,0,14.2,0
2003/4/5 0:30,10.9,0,69,0,20.8,0,52.3,0,16.6,0,14.3,0
2003/4/5 0:45,10.7,0,71,0,21,0,51.5,0,16.6,0,14.3,0
2003/4/5 1:00,10.8,0,70,0,21.2,0,51.3,0,16.5,0,14.3,0
2003/4/5 1:15,10.9,0,70,0,21.4,0,51.1,0,16.5,0,14.3,0
2003/4/5 1:30,10.8,0,71,0,21.5,0,50.8,0,16.5,0,14.3,0
2003/4/5 1:45,10.9,0,69,0,21.8,0,51.4,0,16.4,0,14.3,0
2003/4/5 2:00,11,0,68,0,21.9,0,52,0,16.4,0,14.3,0
2003/4/5 2:15,10.9,0,70,0,22,0,51.8,0,16.4,0,14.2,0
2003/4/5 2:30,10,0,84,0,22,0,50.9,0,16.4,0,14.2,0
2003/4/5 2:45,10.1,0,86,0,21.8,0,49.8,0,16.3,0,14.2,0
2003/4/5 3:00,10.3,0,81,0,21.4,0,47,0,16.4,0,14.2,0
2003/4/5 3:15,10.5,0,77,0,20.7,0,44.3,0,16.4,0,14.2,0
2003/4/5 3:30,10.6,0,76,0,20.3,0,44.6,0,16.5,0,14.2,0
2003/4/5 3:45,10.6,0,73,0,20,0,44.8,0,16.5,0,14.2,0
2003/4/5 4:00,10.8,0,70,0,19.7,0,45.3,0,16.5,0,14.2,0
2003/4/5 4:15,10.8,0,67,0,19.5,0,45.5,0,16.4,0,14.2,0
2003/4/5 4:30,11,0,64,0,19.3,0,45.7,0,16.4,0,14.2,0
2003/4/5 4:45,11.2,0,65,0,19.1,0,45.9,0,16.4,0,14.2,0
2003/4/5 5:00,11.2,0,64,0,19,0,46.1,0,16.3,0,14.2,0
2003/4/5 5:15,11.2,0,64,0,18.8,0,46.2,0,16.3,0,14.2,0
2003/4/5 5:30,11.2,0,62,0,18.7,0,46.3,0,16.3,0,14.2,0
2003/4/5 5:45,11.1,0,64,0,18.5,0,46.3,0,16.2,0,14.2,0
2003/4/5 6:00,10.8,0,70,0,18.4,0,46.4,0,16.2,0,14.2,0
2003/4/5 6:15,11.4,0,65,0,18.3,0,46.4,0,16.2,0,14.2,0
2003/4/5 6:30,11.4,0,64,0,18.2,0,46.5,0,16.1,0,14.2,0
2003/4/5 6:45,11.3,0,61,0,18.1,0,46.6,0,16.1,0,14.2,0
2003/4/5 7:00,11.4,0,58,0,18.1,0,46.6,0,16,0,14.2,0
2003/4/5 7:15,11.4,0,57,0,18,0,46.7,0,16,0,14.2,0
2003/4/5 7:30,11.5,0,58,0,17.9,0,46.7,0,16,0,14.2,0
2003/4/5 7:45,11.7,0,59,0,17.8,0,46.6,0,15.9,0,14.2,0
2003/4/5 8:00,11.7,0,60,0,17.8,0,46.5,0,15.9,0,14.2,0
2003/4/5 8:15,12.1,0,60,0,17.7,0,46.4,0,15.9,0,14.2,0
2003/4/5 8:30,12,0,60,0,17.7,0,46.3,0,15.8,0,14.2,0
2003/4/5 8:45,12.3,0,59,0,17.7,0,46.3,0,15.8,0,14.1,0
2003/4/5 9:00,12.5,0,61,0,17.6,0,46.3,0,15.8,0,14.1,0
2003/4/5 9:15,12.6,0,62,0,17.6,0,46.2,0,15.8,0,14.1,0
2003/4/5 9:30,13.3,0,60,0,17.6,0,46.2,0,15.8,0,14.1,0
2003/4/5 9:45,13,0,55,0,17.7,0,46.4,0,15.8,0,14.1,0
2003/4/5 10:00,14,0,50,0,17.9,0,46.8,0,15.8,0,14.1,0
2003/4/5 10:15,14.1,0,49,0,18.1,0,46.9,0,15.8,0,14.1,0
2003/4/5 10:30,14.4,0,48,0,18.2,0,47,0,15.8,0,14.1,0
2003/4/5 10:45,13.6,0,50,0,18.3,0,47,0,15.8,0,14.1,0
2003/4/5 11:00,14.1,0,48,0,18.5,0,47,0,15.8,0,14.1,0
2003/4/5 11:15,14,0,46,0,18.7,0,46.9,0,15.8,0,14.1,0
2003/4/5 11:30,13.8,0,47,0,18.7,0,46.9,0,15.8,0,14.1,0
2003/4/5 11:45,13.7,0,56,0,18.8,0,46.7,0,15.9,0,13.8,0
2003/4/5 12:00,13.2,0,57,0,18.9,0,46.5,0,15.9,0,13.8,0
2003/4/5 12:15,14.1,0,52,0,18.9,0,46.4,0,15.9,0,13.8,0
2003/4/5 12:30,14,0,52,0,19,0,46.3,0,15.9,0,13.8,0
2003/4/5 12:45,14.4,0,53,0,19.1,0,46.3,0,15.9,0,13.7,0
2003/4/5 13:00,14,0,50,0,19.5,0,46.5,0,16,0,13.7,0
2003/4/5 13:15,14.5,0,45,0,19.9,0,46.3,0,16,0,13.7,0
2003/4/5 13:30,14.9,0,41,0,20.3,0,46,0,16,0,13.7,0